Probability
0 0 0 0 0 0 0 0 0 1 2 1 1 3 2 1 0 0 0 1 2 4 7 9 8 8 8 6 5 4 4 4 3 1 0 0 0 0 0 1 1 1 1
0 0 0 0 0 0 0 0 1 2 2 1 1 1 1 0 0 0 1 2 3 3 5 5 4 5 5 4 4 3 4 4 3 1 0 0 0 0 1 2 2 1 0
0 0 0 0 0 0 0 1 1 2 2 1 1 1 1 0 1 1 3 4 4 3 2 2 1 1 2 3 3 3 3 4 4 3 1 0 0 1 2 3 2 1 0
0 0 0 0 0 0 0 1 2 3 3 3 3 2 1 1 2 3 4 5 3 2 1 1 1 0 1 2 3 3 3 4 4 3 1 0 0 1 3 3 2 1 0
1 1 1 0 0 0 0 1 2 3 4 5 4 4 3 2 3 3 4 3 2 1 1 1 1 0 1 2 3 3 3 3 3 1 0 0 0 1 3 4 4 2 1
1 2 1 0 0 0 0 1 1 2 3 4 5 5 5 4 4 3 2 1 0 0 1 1 0 0 1 2 3 3 2 2 1 0 0 0 0 1 3 5 5 3 1
2 2 1 1 0 0 0 0 0 1 1 2 3 4 5 5 4 2 1 0 0 0 0 0 0 0 1 2 2 1 1 1 0 0 0 0 0 1 2 3 3 2 1
3 3 2 1 0 0 0 0 0 0 0 0 1 2 2 3 2 0 0 0 0 0 0 0 0 0 0 1 1 1 1 0 0 0 0 0 0 0 1 1 1 1 1
2 2 2 1 0 0 0 0 0 0 0 0 0 0 1 1 0 0 0 0 0 0 0 0 0 0 0 0 0 0 0 0 0 0 0 0 0 0 0 0 0 0 1
1 1 1 0 0 0 0 0 0 0 0 0 0 0 0 0 0 0 0 0 0 0 0 0 0 0 0 1 0 0 0 0 0 0 0 0 0 0 0 0 0 0 0
0 0 0 0 0 0 0 0 0 0 0 0 0 0 0 0 0 0 0 0 0 0 0 0 0 0 0 0 0 0 0 0 0 0 0 0 0 0 0 0 0 0 1
0 0 0 0 0 0 0 0 0 0 0 0 0 0 0 0 0 0 0 0 0 0 0 0 0 0 0 0 0 0 0 0 0 0 0 0 0 0 0 0 0 0 1
0 0 0 1 1 0 0 0 0 0 0 0 0 0 0 0 0 0 0 0 0 0 0 0 0 0 0 0 0 0 0 0 0 0 1 1 1 1 0 1 1 1 1
0 0 0 1 1 1 1 0 0 0 0 0 0 0 0 0 0 0 0 0 0 0 0 0 0 0 0 0 0 0 0 0 0 0 1 2 2 1 1 2 2 1 1
0 0 0 1 1 2 1 0 0 0 0 0 0 0 0 0 0 0 0 0 0 0 0 0 0 0 0 0 0 0 0 0 0 0 1 2 2 1 2 2 2 1 0
0 0 0 0 1 1 1 1 0 0 0 0 0 0 0 0 0 0 0 0 0 0 0 0 0 0 0 0 0 0 0 0 0 0 1 2 1 1 1 1 1 0 0
0 0 0 0 0 1 1 1 0 0 0 0 0 0 0 0 0 0 0 0 0 0 0 0 0 0 0 0 0 0 0 0 0 0 0 1 1 0 0 0 0 0 0
0 0 0 0 1 1 1 1 0 0 0 0 0 0 0 0 0 0 0 0 0 0 0 0 0 0 0 0 0 0 0 0 0 0 0 0 0 0 0 0 0 0 0
0 0 0 0 1 1 1 0 1 1 1 0 0 0 0 0 0 0 0 0 0 0 0 0 0 0 0 0 0 0 0 0 0 0 0 0 0 0 0 0 0 0 0
1 2 1 1 1 0 0 0 1 2 2 1 0 0 0 0 0 0 0 0 0 0 0 0 0 0 0 0 0 0 0 0 0 0 0 0 0 0 0 0 0 0 0
3 3 3 2 1 0 0 0 1 3 2 1 0 0 0 0 0 0 0 0 0 0 0 0 0 0 0 0 0 0 0 0 0 0 0 0 0 0 0 0 0 0 0
2 2 2 2 2 1 0 0 1 2 2 1 0 0 0 0 0 0 0 0 0 0 0 0 0 0 0 0 0 0 0 0 0 0 0 0 0 0 0 0 0 0 0
1 1 1 2 2 1 1 1 1 1 1 1 0 0 0 0 0 0 0 0 0 0 0 0 0 0 0 0 0 0 0 0 0 0 0 0 0 0 0 0 0 0 0
0 0 1 1 2 3 3 3 2 1 1 0 0 0 0 0 0 0 0 0 0 0 0 0 0 0 0 0 0 0 0 0 0 0 0 0 0 0 0 0 0 0 0
2 2 2 3 3 4 5 5 4 3 2 1 0 0 0 0 0 0 0 0 0 0 0 0 0 0 0 0 0 0 0 0 0 0 0 0 0 0 0 0 0 0 0
4 4 4 5 5 5 6 7 5 4 2 1 0 0 0 0 0 0 0 0 0 0 0 0 0 0 0 0 0 0 0 0 0 0 0 0 0 0 0 0 0 0 0
Wind_Speed
5 7 9 10 10 11 11 11 11 11 11 12 11 10 10 10 10 10 11 11 10 10 11 11 10 10 9 9 8 8 9 9 10 9 9 8 8 7 7 6 6 6 9
6 8 10 9 10 10 11 11 11 11 12 12 11 11 11 11 11 11 11 11 11 11 11 11 11 10 11 10 10 9 9 9 9 8 8 7 8 8 7 7 7 6 8
8 8 8 9 10 10 11 11 11 11 12 12 12 12 12 12 12 12 12 11 11 11 11 11 11 11 11 11 11 10 9 8 8 7 7 4 6 9 8 8 8 8 8
8 8 9 9 10 11 11 11 12 12 12 12 13 13 13 12 12 12 12 12 11 11 11 12 11 11 11 11 10 10 9 8 7 7 5 6 5 9 8 8 8 8 8
9 9 9 10 10 11 11 12 12 12 13 13 13 13 13 12 12 12 12 12 11 11 11 11 11 11 11 10 10 9 9 8 8 7 5 5 5 8 8 7 7 7 8
9 9 9 10 11 11 11 12 12 13 13 13 13 13 13 12 13 12 12 12 11 11 11 11 11 11 10 10 10 9 8 8 6 4 5 5 4 7 8 8 8 8 7
8 9 9 11 11 11 12 12 12 13 13 14 14 13 12 12 12 12 12 12 12 12 12 12 11 11 11 10 9 8 8 7 4 5 5 5 6 8 8 7 8 7 7
8 9 9 11 11 11 12 12 13 13 13 13 13 13 12 12 12 12 12 12 12 12 12 12 11 11 10 10 9 8 8 7 6 6 5 5 8 9 8 8 8 7 7
7 7 7 8 9 10 11 11 12 12 12 11 11 11 11 11 11 12 12 12 11 11 11 11 11 10 9 9 8 8 8 8 5 3 6 5 9 10 9 8 8 8 7
6 6 6 7 7 6 7 10 10 9 9 9 8 9 9 10 10 11 11 11 11 11 10 10 9 9 8 7 6 6 6 6 5 5 4 6 11 10 10 9 9 9 8
5 4 5 6 6 6 6 8 7 6 6 5 5 6 5 3 4 6 9 10 10 10 9 8 7 7 6 5 5 5 5 3 5 5 5 10 11 11 10 10 9 9 9
4 4 4 5 5 5 5 4 3 3 3 2 2 2 2 3 4 6 7 8 8 7 6 5 4 4 3 2 3 4 3 5 5 5 6 12 11 11 11 10 10 9 9
4 4 4 4 5 5 3 3 2 2 2 2 3 3 3 3 3 3 2 4 4 4 2 3 1 1 3 3 4 4 5 5 4 4 6 12 12 11 10 10 10 10 10
4 4 4 4 3 4 3 2 2 2 2 2 2 3 3 2 2 2 2 2 2 2 3 2 2 4 4 5 5 5 6 4 4 4 6 12 12 12 11 11 10 10 10
4 3 4 3 3 3 4 2 3 2 2 2 2 2 3 3 2 2 2 3 3 3 3 3 4 5 5 5 5 6 6 6 6 5 4 11 12 12 11 11 10 10 10
4 3 3 3 3 3 3 2 2 2 2 2 2 2 4 3 2 3 4 3 3 3 3 3 4 4 3 4 5 6 5 5 5 5 4 6 10 11 11 11 10 10 10
3 3 3 3 3 3 3 3 2 2 2 2 2 2 3 3 3 3 3 3 2 3 3 3 4 3 4 4 5 5 4 4 4 4 4 3 4 8 11 11 12 11 10
4 3 3 3 4 3 3 3 2 2 3 2 2 3 3 4 4 4 3 2 3 3 3 3 3 3 3 3 3 3 3 3 4 4 3 4 3 4 7 11 11 11 10
4 4 3 3 4 3 3 2 2 2 3 2 2 2 3 4 4 4 3 2 3 3 2 3 3 3 3 3 2 3 3 3 3 4 4 4 4 4 3 6 9 10 11
4 4 4 3 3 3 2 2 2 3 2 3 2 3 4 3 4 4 2 3 3 3 3 3 3 2 2 2 3 4 2 2 3 4 4 4 4 4 4 4 3 6 10
4 4 4 3 3 3 2 2 2 2 2 2 2 3 3 3 3 3 2 3 3 3 2 3 3 2 1 2 3 2 2 3 4 3 3 3 4 3 3 3 3 3 4
4 4 4 2 3 4 2 2 2 2 2 2 1 2 2 3 3 2 3 2 2 2 3 3 2 1 1 1 1 1 1 2 3 3 2 3 3 3 3 4 3 3 3
3 3 3 3 3 4 3 2 2 2 1 2 1 1 1 2 2 2 2 2 2 2 2 2 2 2 1 2 2 1 1 1 1 2 2 2 2 3 2 3 4 4 4
3 3 3 3 3 4 4 2 2 2 1 1 1 1 1 1 2 2 2 2 2 2 2 1 2 1 1 1 2 2 1 2 2 1 2 2 2 3 3 3 4 4 4
3 3 2 3 3 4 3 3 2 2 1 1 1 2 1 1 1 2 1 1 1 2 2 2 2 2 1 1 1 1 2 1 1 2 0 1 2 2 2 2 2 2 3
3 3 3 3 3 3 3 2 2 2 1 2 1 1 1 0 1 1 1 1 1 1 1 2 2 2 1 1 1 1 1 1 1 1 1 0 1 1 1 2 2 2 2
Wind_Direction
66 70 54 48 47 49 48 46 47 52 55 58 58 62 69 72 74 77 78 76 76 79 78 78 77 78 77 77 80 82 88 92 90 91 89 89 90 87 87 86 82 83 88
80 76 62 54 50 51 52 52 51 52 56 59 58 64 72 74 76 75 75 75 76 78 79 77 77 79 79 76 75 80 90 96 96 93 94 92 90 86 83 80 79 82 89
81 80 72 61 55 53 56 56 55 55 56 58 59 68 73 73 75 75 73 73 74 77 78 78 77 78 78 75 74 76 79 89 87 85 85 93 90 84 83 84 83 83 86
77 77 74 71 62 59 59 59 58 57 59 60 62 68 71 73 74 75 75 75 75 76 78 77 77 77 77 74 74 74 75 76 76 73 70 74 78 80 81 81 83 84 83
78 80 80 78 70 65 63 61 61 60 62 63 64 69 71 72 75 77 76 75 75 76 78 79 79 78 76 73 70 69 68 67 66 72 73 75 72 78 78 78 78 81 82
88 87 91 86 80 73 66 63 63 63 64 65 65 69 72 74 75 77 78 77 77 78 80 81 81 79 76 72 68 65 64 63 61 73 76 77 74 77 79 78 76 73 73
92 93 98 94 87 80 74 69 67 67 66 66 65 67 72 74 75 76 77 79 79 79 81 82 81 78 74 70 67 63 62 62 64 74 77 77 77 78 77 75 73 70 69
94 99 102 104 96 89 83 77 72 70 69 68 67 66 68 70 75 78 78 79 79 80 81 82 81 77 74 70 64 57 52 58 65 68 71 74 77 77 75 71 67 65 67
98 105 114 116 106 97 91 85 78 74 72 71 70 70 71 72 75 77 78 78 78 80 82 81 77 74 72 69 64 56 50 51 50 57 71 67 72 72 72 69 64 61 64
96 101 109 117 117 112 102 97 91 84 79 77 75 74 73 75 79 79 79 80 79 80 86 83 81 77 73 68 62 53 51 48 58 58 63 66 68 69 67 64 62 61 64
87 92 104 104 111 113 111 108 110 102 90 88 82 80 84 80 82 83 85 90 88 86 87 88 89 87 80 70 58 47 46 63 67 63 63 67 67 67 66 63 63 63 64
91 83 96 101 104 105 101 114 122 115 114 103 95 101 80 75 73 80 93 103 103 99 96 98 91 84 82 75 58 49 55 62 66 63 64 67 66 65 66 64 61 62 63
100 92 86 94 98 100 97 105 99 95 100 81 66 68 73 75 85 89 101 110 114 119 106 102 98 65 72 71 63 61 59 62 64 60 63 66 63 63 63 62 61 61 59
106 100 84 81 92 105 103 100 101 95 77 75 70 71 70 63 58 73 86 95 92 72 57 64 67 58 60 69 73 69 64 68 72 67 66 66 63 60 59 58 59 61 57
112 101 91 81 76 79 82 81 91 89 85 81 61 70 81 78 68 65 73 69 71 69 63 54 61 57 52 52 59 66 66 67 76 71 68 67 64 60 58 56 56 56 55
123 112 100 86 80 84 92 90 82 83 76 70 62 61 76 76 73 67 68 63 65 62 66 69 75 63 60 61 61 62 65 66 77 81 82 70 66 63 58 56 53 53 56
119 110 112 110 98 83 83 83 86 84 81 70 62 56 68 71 76 75 75 74 74 66 62 62 63 63 62 63 62 63 65 61 71 72 79 83 71 62 61 60 56 54 56
117 109 101 105 89 82 70 75 77 81 81 69 55 46 59 66 70 68 68 73 76 71 64 67 66 60 59 59 58 59 65 64 69 68 65 71 72 70 66 64 59 55 54
101 110 104 92 94 90 86 80 76 77 78 71 63 50 45 59 66 70 61 61 70 74 70 65 65 66 64 59 63 68 60 57 61 68 62 62 65 69 71 69 61 55 53
102 105 103 92 102 102 90 80 73 72 71 64 59 59 52 55 64 67 64 57 60 65 68 71 74 64 62 60 63 62 61 63 57 60 58 58 61 65 65 70 63 54 55
100 100 100 104 104 94 80 86 91 76 68 64 56 59 60 67 72 70 57 58 52 62 70 78 81 74 64 70 77 53 40 61 68 65 60 54 55 56 54 57 61 58 53
121 115 118 114 118 110 99 91 108 108 89 91 64 52 48 62 67 78 86 82 69 60 55 62 66 57 18 38 81 96 60 30 29 58 63 65 56 50 44 52 64 65 63
131 131 135 134 119 118 115 94 82 90 85 81 79 47 28 63 68 59 67 90 96 93 86 77 71 64 5 351 27 81 107 119 2 18 55 66 69 60 44 38 49 59 69
140 138 144 136 123 121 125 119 116 107 120 148 136 120 59 59 65 66 67 69 86 81 98 100 83 62 53 2 350 14 80 127 117 25 11 37 62 65 60 53 45 40 62
137 136 143 135 126 121 120 130 138 135 144 128 111 112 88 59 62 64 72 60 83 92 100 85 78 66 56 51 19 5 30 33 76 120 83 1 24 35 59 71 64 47 62
132 136 140 132 125 128 134 144 154 155 134 116 109 120 109 76 78 84 107 82 80 104 102 96 98 88 67 45 41 44 57 57 74 98 117 75 33 345 47 71 78 73 70